Philadelphia Wings Airport, PA

5:50 AM EDT on June 29, 2017 (GMT -0400)
Philadelphia Wings Airport

Weather History for KLOM - December, 2013

Change the Weather History Date:

Friday, December 6, 2013

  Actual Average (KPNE) Record (KPNE)
Temperature  
Mean Temperature 50 °F -  
Max Temperature 62 °F 46 °F 73 °F (2001)
Min Temperature 37 °F 31 °F 19 °F (2002)
Degree Days  
Heating Degree Days 16    
Moisture  
Dew Point 47 °F    
Average Humidity 90    
Maximum Humidity 94    
Minimum Humidity 81    
Precipitation  
Precipitation 0.57 in - - ()
Sea Level Pressure  
Sea Level Pressure 30.01 in    
Wind  
Wind Speed 4 mph (NNW)    
Max Wind Speed 9 mph    
Max Gust Speed 18 mph    
Visibility 4 miles    
Events      
Averages and records for this station are not official NWS values.
T = Trace of Precipitation, MM = Missing Value Source: NWS Daily Summary

Daily Weather History Graph

Daily Weather History Graph

Search for Another Location

Airport or City:

Trip Planner

Search our weather history database for the weather conditions in past years. The results will help you decide how hot, cold, wet, or windy it might be!

Date:

Astronomy

Dec. 06, 2013 Rise Set
Actual Time 7:09 AM EST 4:35 PM EST
Civil Twilight 6:38 AM EST 5:05 PM EST
Nautical Twilight 6:04 AM EST 5:39 PM EST
Astronomical Twilight 5:32 AM EST 6:12 PM EST
Moon 10:12 AM EST (12/6) 9:04 PM EST (12/6)
Length of Visible Light 10h 26m
Length of Day
9h 26m
Waxing Crescent, 19% of the Moon is Illuminated
Dec 6
Waxing Crescent
Dec 9
First Quarter
Dec 17
Full
Dec 25
Last Quarter
Jan 1
New

Hourly Weather History & Observations

Time (EST) Temp. Windchill Dew Point Humidity Pressure Visibility Wind Dir Wind Speed Gust Speed Precip Events Conditions
12:15 AM 60.8 °F - 59.0 °F 94% 29.93 in 2.5 mi South 3.5 mph - N/A   Overcast
12:35 AM 60.8 °F - 59.0 °F 94% 29.93 in 2.5 mi South 4.6 mph - N/A   Overcast
12:55 AM 60.8 °F - 59.0 °F 94% 29.92 in 2.0 mi South 6.9 mph - N/A   Overcast
1:15 AM 60.8 °F - 59.0 °F 94% 29.92 in 1.5 mi South 3.5 mph - N/A   Overcast
1:35 AM 60.8 °F - 59.0 °F 94% 29.91 in 1.5 mi SSW 4.6 mph - N/A   Overcast
1:55 AM 60.8 °F - 59.0 °F 94% 29.90 in 1.8 mi South 5.8 mph - N/A   Overcast
2:15 AM 60.8 °F - 59.0 °F 94% 29.89 in 1.8 mi South 6.9 mph - N/A   Overcast
2:35 AM 60.8 °F - 59.0 °F 94% 29.90 in 2.5 mi SSW 9.2 mph - N/A   Overcast
2:55 AM 62.6 °F - 59.0 °F 88% 29.89 in 3.0 mi SSW 6.9 mph - N/A   Overcast
3:15 AM 62.6 °F - 59.0 °F 88% 29.88 in 4.0 mi SSW 8.1 mph - N/A   Overcast
3:35 AM 62.6 °F - 59.0 °F 88% 29.88 in 4.0 mi SSW 6.9 mph - 0.01 in   Overcast
3:55 AM 62.6 °F - 60.8 °F 94% 29.88 in 4.0 mi SSW 6.9 mph - 0.01 in   Overcast
4:15 AM 62.6 °F - 59.0 °F 88% 29.89 in 4.0 mi SW 4.6 mph - N/A   Overcast
4:35 AM 62.6 °F - 59.0 °F 88% 29.89 in 3.0 mi SSW 4.6 mph - N/A   Overcast
4:55 AM 62.6 °F - 59.0 °F 88% 29.89 in 3.0 mi SSW 5.8 mph - N/A   Overcast
5:15 AM 62.6 °F - 60.8 °F 94% 29.88 in 2.5 mi SW 4.6 mph - 0.02 in   Overcast
5:35 AM 62.6 °F - 59.0 °F 88% 29.88 in 2.0 mi SSW 4.6 mph - 0.03 in   Overcast
5:55 AM 62.6 °F - 59.0 °F 88% 29.88 in 1.8 mi Calm Calm - 0.03 in   Overcast
6:15 AM 62.6 °F - 60.8 °F 94% 29.89 in 1.8 mi SSW 3.5 mph - 0.01 in   Overcast
6:35 AM 60.8 °F - 59.0 °F 94% 29.93 in 2.5 mi NNW 9.2 mph 16.1 mph 0.03 in   Overcast
6:55 AM 53.6 °F - 50.0 °F 88% 29.93 in 4.0 mi NNW 9.2 mph 18.4 mph 0.04 in   Overcast
7:15 AM 51.8 °F - 50.0 °F 94% 29.95 in 7.0 mi NNW 5.8 mph - 0.01 in   Overcast
7:35 AM 51.8 °F - 48.2 °F 88% 29.98 in 5.0 mi NW 5.8 mph - 0.04 in   Overcast
7:55 AM 51.8 °F - 46.4 °F 82% 29.98 in 5.0 mi NNW 4.6 mph - 0.04 in   Overcast
8:15 AM 50.0 °F - 46.4 °F 87% 29.99 in 5.0 mi NW 6.9 mph - N/A   Overcast
8:35 AM 50.0 °F - 46.4 °F 87% 29.98 in 5.0 mi NNW 4.6 mph - 0.01 in   Overcast
8:55 AM 50.0 °F - 46.4 °F 87% 30.01 in 5.0 mi NNW 3.5 mph - 0.03 in   Overcast
9:15 AM 50.0 °F - 46.4 °F 87% 30.01 in 5.0 mi Calm Calm - 0.03 in   Overcast
9:55 AM 48.2 °F - 44.6 °F 87% 30.05 in 5.0 mi North 3.5 mph - 0.04 in   Overcast
10:15 AM 48.2 °F - 44.6 °F 87% 30.04 in 2.5 mi Calm Calm - 0.01 in   Overcast
10:35 AM 48.2 °F - 44.6 °F 87% 30.05 in 2.5 mi North 4.6 mph - 0.03 in   Overcast
10:55 AM 48.2 °F - 44.6 °F 87% 30.05 in 2.5 mi North 3.5 mph - 0.03 in   Overcast
11:15 AM 48.2 °F - 44.6 °F 87% 30.05 in 3.0 mi Calm Calm - 0.01 in   Overcast
11:35 AM 46.4 °F - 44.6 °F 93% 30.04 in 1.8 mi Calm Calm - 0.02 in   Overcast
11:55 AM 46.4 °F - 44.6 °F 93% 30.05 in 3.0 mi Calm Calm - 0.02 in   Overcast
12:15 PM 46.4 °F 43.5 °F 44.6 °F 93% 30.05 in 7.0 mi NW 5.8 mph - N/A   Overcast
12:35 PM 46.4 °F 45.2 °F 42.8 °F 87% 30.04 in 2.5 mi NW 3.5 mph - N/A   Overcast
12:55 PM 46.4 °F 44.3 °F 42.8 °F 87% 30.05 in 3.0 mi NW 4.6 mph - 0.01 in   Overcast
1:15 PM 46.4 °F - 42.8 °F 87% 30.03 in 4.0 mi Calm Calm - N/A   Overcast
1:35 PM 46.4 °F - 42.8 °F 87% 30.01 in 3.0 mi Calm Calm - 0.02 in   Overcast
1:55 PM 46.4 °F - 42.8 °F 87% 30.00 in 5.0 mi Calm Calm - 0.02 in   Overcast
2:15 PM 46.4 °F - 42.8 °F 87% 30.02 in 5.0 mi Calm Calm - N/A   Overcast
2:35 PM 46.4 °F 45.2 °F 42.8 °F 87% 30.04 in 7.0 mi NNE 3.5 mph - N/A   Overcast
2:55 PM 46.4 °F - 42.8 °F 87% 30.04 in 7.0 mi Calm Calm - N/A   Overcast
3:15 PM 44.6 °F 43.1 °F 42.8 °F 93% 30.04 in 4.0 mi NE 3.5 mph - 0.01 in   Overcast
3:35 PM 44.6 °F - 42.8 °F 93% 30.04 in 3.0 mi Calm Calm - 0.02 in   Overcast
3:55 PM 44.6 °F 43.1 °F 42.8 °F 93% 30.05 in 5.0 mi NNE 3.5 mph - 0.02 in   Overcast
4:15 PM 44.6 °F - 42.8 °F 93% 30.05 in 7.0 mi Calm Calm - N/A   Overcast
4:35 PM 44.6 °F 43.1 °F 41.0 °F 87% 30.05 in 7.0 mi NE 3.5 mph - N/A   Overcast
4:55 PM 42.8 °F 40.1 °F 39.2 °F 87% 30.06 in 5.0 mi NNE 4.6 mph - 0.01 in   Overcast
5:15 PM 42.8 °F 40.1 °F 37.4 °F 81% 30.06 in 5.0 mi NE 4.6 mph - 0.02 in   Overcast
5:35 PM 41.0 °F 39.0 °F 37.4 °F 87% 30.09 in 7.0 mi NNE 3.5 mph - 0.02 in   Overcast
6:55 PM 39.2 °F 35.9 °F 35.6 °F 87% 30.10 in 4.0 mi North 4.6 mph - 0.04 in   Overcast
7:15 PM 39.2 °F 35.0 °F 35.6 °F 87% 30.09 in 3.0 mi North 5.8 mph - 0.01 in   Overcast
7:35 PM 39.2 °F 37.0 °F 35.6 °F 87% 30.11 in 4.0 mi North 3.5 mph - 0.02 in   Overcast
7:55 PM 39.2 °F 33.0 °F 35.6 °F 87% 30.11 in 4.0 mi North 9.2 mph - 0.02 in   Overcast
8:35 PM 37.4 °F 32.8 °F 35.6 °F 93% 30.11 in 4.0 mi North 5.8 mph - 0.05 in   Overcast
8:55 PM 37.4 °F 32.1 °F 35.6 °F 93% 30.11 in 4.0 mi North 6.9 mph - 0.06 in   Overcast
9:15 PM 37.4 °F 33.8 °F 35.6 °F 93% 30.09 in 4.0 mi NE 4.6 mph - 0.01 in   Overcast
9:35 PM 37.4 °F 33.8 °F 35.6 °F 93% 30.12 in 4.0 mi North 4.6 mph - 0.03 in   Overcast
9:55 PM 37.4 °F - 35.6 °F 93% 30.10 in 4.0 mi Calm Calm - 0.05 in   Overcast
10:15 PM 37.4 °F 34.9 °F 35.6 °F 93% 30.11 in 4.0 mi North 3.5 mph - 0.01 in   Overcast
10:35 PM 37.4 °F 34.9 °F 35.6 °F 93% 30.12 in 4.0 mi NNE 3.5 mph - 0.02 in   Overcast
10:55 PM 37.4 °F 34.9 °F 35.6 °F 93% 30.16 in 4.0 mi NW 3.5 mph - 0.04 in   Overcast
11:15 PM 37.4 °F - 35.6 °F 93% 30.16 in 5.0 mi Calm Calm - 0.02 in   Overcast
11:35 PM 37.4 °F 34.9 °F 35.6 °F 93% 30.13 in 5.0 mi North 3.5 mph - 0.03 in   Overcast
11:55 PM 37.4 °F 34.9 °F 33.8 °F 87% 30.12 in 5.0 mi North 3.5 mph - 0.04 in   Overcast